Miscellaneous Local Product
Issued by NWS Hastings, NE

Home | Current Version | Previous Version | Text Only | Print | Product List | Glossary Off
Versions: 1 2 3 4 5 6 7 8 9 10 11 12 13 14 15 16 17 18 19 20 21 22 23 24 25 26 27 28 29 30 31 32 33 34 35 36 37 38 39 40 41 42 43 44 45 46 47 48 49 50

607
AXUS43 KGID 270102
MISGRI

GID CWA HOURLY WEATHER ROUNDUP
NATIONAL WEATHER SERVICE HASTINGS NE
800 PM CDT SUN MAR 26 2017

NOTE: "FAIR" INDICATES FEW OR NO CLOUDS BELOW 12,000 FEET WITH NO
SIGNIFICANT WEATHER AND/OR OBSTRUCTIONS TO VISIBILITY.

...SOUTH CENTRAL NEBRASKA...

CITY           SKY/WX    TMP DP  RH WIND       PRES   REMARKS
GRAND ISLAND   CLOUDY    47  45  93 E6        29.95R
HASTINGS       CLOUDY    48  44  86 E7        29.94R
KEARNEY        CLOUDY    48  39  71 CALM      29.93R
ORD            PTCLDY    48  41  76 E5        29.92R
YORK           CLOUDY    46  45  93 CALM      29.95S
AURORA         CLOUDY    47  45  92 E6        29.95R
LEXINGTON      CLOUDY    49  42  77 E9        29.92R
HOLDREGE       DRIZZLE   47  42  82 CALM      29.93R
HEBRON         RAIN      46  45  95 E3        29.94S

...NEBRASKA PANHANDLE...

CITY           SKY/WX    TMP DP  RH WIND       PRES   REMARKS
CHADRON        CLOUDY    48  39  71 NE6       29.92S
ALLIANCE       CLEAR     46  38  73 N13       29.91R
SCOTTSBLUFF    MOCLDY    48  36  63 NW6       29.94R
SIDNEY         CLEAR     49  37  63 N14       29.92R

...WESTERN AND NORTH CENTRAL NEBRASKA...

CITY           SKY/WX    TMP DP  RH WIND       PRES   REMARKS
VALENTINE      CLOUDY    49  36  61 NE9       29.92R
AINSWORTH      PTCLDY    45  41  87 NE6       29.92R
ONEILL         CLOUDY    46  41  84 NE5       29.94R
BROKEN BOW     PTCLDY    51  43  74 E9        29.90R
IMPERIAL       CLOUDY    53  40  61 E6        29.89R
NORTH PLATTE   CLOUDY    55  40  56 SE8       29.89R
MCCOOK         CLOUDY    50  42  74 SE8       29.91R

...EASTERN NEBRASKA...

CITY           SKY/WX    TMP DP  RH WIND       PRES   REMARKS
NORFOLK        CLOUDY    45  40  82 NE5       29.94R
SO SIOUX CITY  CLOUDY    47  40  76 N6        29.94R
TEKAMAH        CLOUDY    48  42  80 N8        29.94R
COLUMBUS       CLOUDY    46  41  81 E3        29.96R
ALBION         CLOUDY    48  42  80 NE3       29.95R
OMAHA EPPLEY   CLOUDY    49  41  74 NW3       29.95R
OFFUTT AFB     CLOUDY    48  41  77 CALM      29.95R
MILLARD        CLOUDY    50  43  77 CALM      29.96R
LINCOLN        CLOUDY    48  42  80 CALM      29.98R
NEBRASKA CITY  CLOUDY    47  42  81 SW3       29.96R
BEATRICE       CLOUDY    47  44  87 CALM      29.95F
FALLS CITY     CLOUDY    47  43  86 CALM      29.97R

...NORTHERN KANSAS...

CITY           SKY/WX    TMP DP  RH WIND       PRES   REMARKS
GOODLAND       CLOUDY    46  44  93 SE6       29.91R
HILL CITY      CLOUDY    46  45  96 NW5       29.94R
NORTON         CLOUDY    48  43  81 CALM      29.93
PHILLIPSBURG   MOCLDY    48  48 100 CALM      29.93R
HAYS             N/A     45  44  97 N7        29.89F
RUSSELL        CLOUDY    46  45  96 NE12      29.85F
CONCORDIA      LGT RAIN  47  46  97 E7        29.91F FOG
SALINA         RAIN      50  47  89 NE13      29.89S
TOPEKA         RAIN      49  48  97 N8        29.94R FOG



USA.gov is the U.S. government's official web portal to all federal, state and local government web resources and services.